QPF
0.13 0.14 0.14 0.12 0.10 0.09 0.08 0.08 0.08 0.07 0.05 0.04 0.03 0.02 0.01 0.01 0.00 0.00 0.00 0.01 0.01 0.01 0.01 0.01 0.01 0.01 0.01 0.01 0.00 0.00 0.00 0.00 0.00 0.00 0.00 0.01 0.01 0.01
0.14 0.13 0.13 0.13 0.12 0.10 0.09 0.09 0.08 0.06 0.05 0.03 0.02 0.02 0.01 0.01 0.01 0.01 0.01 0.01 0.02 0.02 0.02 0.02 0.01 0.01 0.01 0.01 0.00 0.00 0.00 0.00 0.00 0.00 0.00 0.01 0.01 0.01
0.15 0.14 0.13 0.12 0.12 0.10 0.09 0.09 0.08 0.06 0.04 0.03 0.02 0.02 0.02 0.01 0.01 0.01 0.01 0.01 0.01 0.01 0.01 0.01 0.01 0.01 0.00 0.00 0.00 0.00 0.00 0.00 0.00 0.00 0.00 0.00 0.01 0.01
0.16 0.15 0.14 0.14 0.12 0.09 0.09 0.10 0.08 0.06 0.04 0.03 0.02 0.02 0.02 0.01 0.02 0.02 0.02 0.02 0.01 0.01 0.01 0.01 0.01 0.00 0.00 0.00 0.00 0.00 0.00 0.00 0.00 0.00 0.00 0.00 0.01 0.01
0.15 0.14 0.14 0.14 0.12 0.10 0.10 0.09 0.09 0.07 0.05 0.04 0.03 0.03 0.03 0.02 0.02 0.02 0.01 0.01 0.01 0.01 0.01 0.01 0.00 0.00 0.00 0.00 0.00 0.00 0.00 0.00 0.00 0.00 0.00 0.00 0.00 0.01
0.17 0.13 0.12 0.12 0.12 0.11 0.10 0.09 0.08 0.08 0.07 0.05 0.05 0.04 0.03 0.02 0.03 0.02 0.02 0.02 0.01 0.01 0.01 0.01 0.00 0.00 0.00 0.00 0.00 0.00 0.00 0.00 0.00 0.00 0.00 0.00 0.01 0.01
0.18 0.16 0.12 0.11 0.12 0.12 0.11 0.10 0.08 0.08 0.07 0.06 0.05 0.03 0.02 0.02 0.02 0.02 0.02 0.02 0.01 0.01 0.01 0.00 0.00 0.00 0.00 0.00 0.00 0.00 0.00 0.00 0.00 0.00 0.00 0.00 0.01 0.01
0.17 0.16 0.14 0.13 0.13 0.13 0.12 0.10 0.08 0.07 0.06 0.04 0.03 0.03 0.02 0.02 0.02 0.02 0.02 0.02 0.01 0.01 0.00 0.00 0.00 0.00 0.00 0.00 0.00 0.00 0.00 0.01 0.01 0.01 0.00 0.00 0.01 0.01
0.15 0.15 0.15 0.14 0.14 0.14 0.14 0.13 0.10 0.07 0.05 0.03 0.03 0.03 0.02 0.02 0.02 0.02 0.02 0.01 0.01 0.00 0.00 0.00 0.00 0.00 0.00 0.00 0.00 0.00 0.00 0.00 0.00 0.00 0.00 0.01 0.01 0.01
0.13 0.13 0.14 0.14 0.15 0.15 0.15 0.14 0.11 0.08 0.05 0.04 0.03 0.03 0.03 0.03 0.03 0.02 0.02 0.01 0.00 0.00 0.00 0.00 0.00 0.00 0.00 0.00 0.00 0.00 0.00 0.00 0.00 0.01 0.01 0.01 0.01 0.01
0.16 0.14 0.15 0.14 0.15 0.16 0.15 0.14 0.10 0.08 0.06 0.06 0.04 0.03 0.03 0.03 0.02 0.02 0.01 0.01 0.00 0.00 0.00 0.00 0.00 0.00 0.00 0.00 0.00 0.00 0.00 0.00 0.00 0.01 0.01 0.01 0.01 0.01
0.21 0.18 0.17 0.14 0.15 0.16 0.15 0.13 0.10 0.08 0.07 0.06 0.05 0.04 0.03 0.02 0.02 0.01 0.01 0.00 0.00 0.00 0.00 0.00 0.01 0.01 0.01 0.00 0.00 0.00 0.00 0.01 0.01 0.01 0.01 0.01 0.01 0.01
0.20 0.20 0.19 0.18 0.16 0.16 0.15 0.12 0.10 0.08 0.06 0.05 0.04 0.03 0.02 0.01 0.01 0.01 0.00 0.00 0.00 0.00 0.00 0.01 0.01 0.00 0.00 0.00 0.00 0.00 0.00 0.00 0.00 0.00 0.01 0.01 0.01 0.01
0.15 0.15 0.16 0.18 0.18 0.16 0.15 0.13 0.12 0.10 0.08 0.06 0.04 0.03 0.02 0.01 0.01 0.01 0.01 0.01 0.01 0.01 0.01 0.01 0.01 0.00 0.01 0.01 0.01 0.01 0.01 0.00 0.00 0.00 0.00 0.01 0.01 0.01
0.15 0.16 0.17 0.19 0.20 0.18 0.16 0.13 0.12 0.10 0.08 0.07 0.04 0.02 0.02 0.01 0.01 0.01 0.01 0.01 0.01 0.01 0.01 0.01 0.01 0.01 0.01 0.01 0.01 0.01 0.01 0.00 0.00 0.00 0.00 0.00 0.00 0.01
0.18 0.18 0.20 0.22 0.22 0.20 0.18 0.13 0.10 0.08 0.07 0.06 0.04 0.03 0.02 0.01 0.01 0.01 0.01 0.01 0.02 0.02 0.01 0.01 0.01 0.01 0.01 0.01 0.01 0.01 0.01 0.01 0.00 0.00 0.00 0.00 0.01 0.01
0.19 0.21 0.23 0.25 0.24 0.21 0.17 0.14 0.11 0.09 0.08 0.06 0.05 0.04 0.03 0.02 0.01 0.01 0.01 0.01 0.02 0.01 0.01 0.01 0.01 0.01 0.01 0.01 0.01 0.01 0.01 0.01 0.00 0.00 0.00 0.00 0.01 0.01
0.19 0.18 0.19 0.19 0.18 0.16 0.14 0.12 0.10 0.09 0.07 0.06 0.05 0.04 0.03 0.03 0.02 0.02 0.02 0.02 0.01 0.01 0.02 0.02 0.02 0.02 0.01 0.01 0.01 0.01 0.01 0.00 0.00 0.00 0.00 0.00 0.01 0.01
0.15 0.13 0.13 0.13 0.13 0.11 0.10 0.10 0.09 0.08 0.06 0.05 0.04 0.03 0.03 0.03 0.03 0.02 0.02 0.02 0.02 0.02 0.02 0.02 0.02 0.01 0.01 0.01 0.01 0.01 0.01 0.00 0.00 0.00 0.00 0.00 0.01 0.01
0.13 0.11 0.10 0.10 0.10 0.10 0.09 0.09 0.08 0.09 0.08 0.06 0.04 0.03 0.03 0.03 0.03 0.03 0.03 0.02 0.02 0.03 0.02 0.02 0.02 0.01 0.01 0.01 0.01 0.01 0.01 0.01 0.00 0.00 0.00 0.00 0.00 0.00
0.14 0.10 0.08 0.09 0.09 0.09 0.09 0.09 0.08 0.07 0.07 0.06 0.05 0.04 0.03 0.03 0.03 0.03 0.03 0.04 0.04 0.03 0.03 0.02 0.01 0.01 0.01 0.01 0.01 0.01 0.01 0.01 0.01 0.01 0.00 0.00 0.00 0.01
0.11 0.10 0.09 0.09 0.09 0.09 0.08 0.08 0.08 0.07 0.06 0.06 0.05 0.05 0.03 0.03 0.03 0.03 0.03 0.03 0.03 0.03 0.03 0.03 0.02 0.02 0.01 0.01 0.01 0.01 0.01 0.00 0.00 0.00 0.00 0.01 0.01 0.03
0.09 0.09 0.10 0.10 0.10 0.09 0.08 0.08 0.07 0.06 0.06 0.05 0.05 0.05 0.04 0.04 0.04 0.04 0.03 0.02 0.02 0.03 0.03 0.03 0.03 0.02 0.02 0.01 0.01 0.01 0.01 0.00 0.00 0.00 0.00 0.00 0.00 0.01
MSLP
994.52 995.23 996.11 997.07 998.04 998.96 999.79 1000.51 1001.15 1001.74 1002.32 1002.93 1003.58 1004.29 1005.03 1005.77 1006.47 1007.08 1007.57 1007.93 1008.15 1008.27 1008.32 1008.33 1008.34 1008.36 1008.41 1008.48 1008.54 1008.57 1008.54 1008.44 1008.25 1007.98 1007.65 1007.26 1006.84 1006.42
993.88 994.69 995.64 996.65 997.65 998.59 999.42 1000.15 1000.80 1001.42 1002.04 1002.71 1003.45 1004.25 1005.09 1005.92 1006.69 1007.35 1007.88 1008.25 1008.46 1008.57 1008.59 1008.58 1008.58 1008.59 1008.64 1008.70 1008.74 1008.74 1008.67 1008.51 1008.25 1007.90 1007.48 1007.02 1006.54 1006.06
993.30 994.21 995.25 996.32 997.37 998.33 999.17 999.92 1000.59 1001.23 1001.89 1002.61 1003.42 1004.29 1005.20 1006.09 1006.91 1007.61 1008.15 1008.52 1008.72 1008.80 1008.81 1008.78 1008.77 1008.78 1008.82 1008.88 1008.91 1008.89 1008.78 1008.57 1008.25 1007.83 1007.34 1006.81 1006.27 1005.76
992.76 993.79 994.92 996.06 997.16 998.15 999.03 999.80 1000.50 1001.17 1001.87 1002.64 1003.49 1004.41 1005.36 1006.29 1007.12 1007.82 1008.35 1008.70 1008.88 1008.94 1008.93 1008.89 1008.87 1008.88 1008.93 1008.98 1009.01 1008.98 1008.84 1008.59 1008.22 1007.75 1007.22 1006.65 1006.08 1005.53
992.29 993.42 994.64 995.85 997.01 998.06 998.98 999.79 1000.53 1001.25 1001.99 1002.80 1003.68 1004.62 1005.58 1006.50 1007.32 1008.00 1008.49 1008.80 1008.95 1008.98 1008.95 1008.90 1008.87 1008.89 1008.94 1009.00 1009.03 1008.98 1008.84 1008.56 1008.17 1007.67 1007.11 1006.52 1005.93 1005.37
991.90 993.13 994.42 995.71 996.93 998.04 999.02 999.90 1000.70 1001.46 1002.25 1003.09 1003.98 1004.92 1005.87 1006.75 1007.53 1008.15 1008.59 1008.85 1008.96 1008.95 1008.89 1008.83 1008.80 1008.82 1008.87 1008.94 1008.96 1008.92 1008.76 1008.48 1008.08 1007.58 1007.01 1006.41 1005.81 1005.24
991.63 992.93 994.29 995.65 996.94 998.12 999.18 1000.13 1000.99 1001.82 1002.65 1003.51 1004.42 1005.34 1006.24 1007.07 1007.78 1008.33 1008.70 1008.90 1008.95 1008.91 1008.82 1008.74 1008.70 1008.72 1008.77 1008.82 1008.85 1008.79 1008.63 1008.35 1007.94 1007.44 1006.88 1006.28 1005.69 1005.10
991.51 992.87 994.29 995.71 997.07 998.33 999.47 1000.49 1001.43 1002.32 1003.20 1004.07 1004.97 1005.85 1006.70 1007.46 1008.09 1008.56 1008.86 1009.00 1009.00 1008.91 1008.80 1008.70 1008.65 1008.64 1008.68 1008.72 1008.73 1008.66 1008.49 1008.19 1007.79 1007.29 1006.72 1006.13 1005.53 1004.93
991.61 993.01 994.47 995.95 997.37 998.70 999.91 1001.01 1002.02 1002.96 1003.87 1004.75 1005.63 1006.47 1007.25 1007.93 1008.48 1008.87 1009.10 1009.18 1009.13 1009.02 1008.89 1008.77 1008.70 1008.67 1008.68 1008.69 1008.67 1008.57 1008.37 1008.05 1007.63 1007.13 1006.56 1005.96 1005.35 1004.73
991.95 993.39 994.89 996.40 997.87 999.26 1000.54 1001.70 1002.75 1003.73 1004.65 1005.53 1006.36 1007.15 1007.86 1008.46 1008.93 1009.25 1009.42 1009.46 1009.39 1009.26 1009.11 1008.98 1008.89 1008.84 1008.82 1008.79 1008.72 1008.58 1008.33 1007.99 1007.54 1007.01 1006.42 1005.81 1005.17 1004.52
992.57 994.04 995.57 997.11 998.61 1000.04 1001.35 1002.54 1003.62 1004.61 1005.51 1006.36 1007.14 1007.85 1008.48 1009.01 1009.41 1009.68 1009.81 1009.83 1009.75 1009.63 1009.48 1009.36 1009.26 1009.18 1009.12 1009.05 1008.92 1008.72 1008.42 1008.02 1007.53 1006.96 1006.35 1005.70 1005.04 1004.36
993.48 994.97 996.51 998.07 999.59 1001.02 1002.33 1003.53 1004.59 1005.55 1006.42 1007.20 1007.91 1008.54 1009.10 1009.55 1009.90 1010.12 1010.24 1010.26 1010.20 1010.10 1009.98 1009.86 1009.76 1009.68 1009.58 1009.46 1009.27 1009.00 1008.64 1008.18 1007.64 1007.02 1006.36 1005.68 1004.98 1004.26
994.66 996.16 997.71 999.26 1000.76 1002.17 1003.46 1004.61 1005.63 1006.53 1007.32 1008.02 1008.64 1009.19 1009.66 1010.05 1010.35 1010.55 1010.67 1010.71 1010.69 1010.63 1010.55 1010.46 1010.37 1010.28 1010.15 1009.98 1009.74 1009.41 1008.98 1008.46 1007.85 1007.19 1006.48 1005.76 1005.02 1004.28
996.07 997.57 999.10 1000.62 1002.07 1003.43 1004.66 1005.74 1006.69 1007.50 1008.19 1008.79 1009.32 1009.77 1010.16 1010.49 1010.75 1010.95 1011.09 1011.16 1011.19 1011.19 1011.15 1011.10 1011.03 1010.93 1010.78 1010.56 1010.26 1009.87 1009.39 1008.81 1008.15 1007.44 1006.70 1005.94 1005.17 1004.41
997.65 999.11 1000.60 1002.06 1003.44 1004.72 1005.87 1006.86 1007.71 1008.42 1009.01 1009.51 1009.93 1010.29 1010.61 1010.89 1011.13 1011.33 1011.49 1011.61 1011.69 1011.73 1011.75 1011.73 1011.67 1011.56 1011.39 1011.14 1010.79 1010.35 1009.81 1009.19 1008.50 1007.75 1006.98 1006.20 1005.41 1004.64
999.29 1000.70 1002.11 1003.49 1004.79 1005.97 1007.02 1007.92 1008.67 1009.28 1009.77 1010.16 1010.49 1010.78 1011.04 1011.28 1011.50 1011.70 1011.88 1012.04 1012.17 1012.26 1012.31 1012.31 1012.26 1012.14 1011.94 1011.65 1011.26 1010.78 1010.21 1009.56 1008.85 1008.09 1007.30 1006.51 1005.73 1004.95
1000.92 1002.24 1003.55 1004.83 1006.03 1007.12 1008.08 1008.88 1009.54 1010.06 1010.46 1010.78 1011.04 1011.26 1011.47 1011.68 1011.89 1012.10 1012.29 1012.48 1012.63 1012.75 1012.81 1012.82 1012.76 1012.62 1012.39 1012.07 1011.65 1011.14 1010.55 1009.89 1009.18 1008.42 1007.65 1006.87 1006.09 1005.32
1002.46 1003.66 1004.87 1006.04 1007.14 1008.14 1009.01 1009.74 1010.33 1010.78 1011.13 1011.39 1011.60 1011.78 1011.96 1012.14 1012.34 1012.54 1012.75 1012.94 1013.10 1013.21 1013.27 1013.26 1013.17 1013.00 1012.74 1012.38 1011.94 1011.42 1010.83 1010.18 1009.49 1008.77 1008.02 1007.27 1006.51 1005.75
1003.88 1004.97 1006.06 1007.12 1008.13 1009.05 1009.85 1010.53 1011.07 1011.49 1011.80 1012.03 1012.21 1012.36 1012.51 1012.68 1012.86 1013.05 1013.24 1013.42 1013.57 1013.67 1013.70 1013.65 1013.53 1013.31 1013.01 1012.63 1012.18 1011.66 1011.09 1010.47 1009.82 1009.14 1008.44 1007.72 1006.99 1006.26
1005.20 1006.16 1007.14 1008.11 1009.04 1009.90 1010.65 1011.29 1011.80 1012.20 1012.49 1012.71 1012.87 1013.01 1013.14 1013.29 1013.45 1013.62 1013.79 1013.94 1014.05 1014.11 1014.10 1014.02 1013.84 1013.59 1013.26 1012.86 1012.40 1011.90 1011.36 1010.79 1010.20 1009.58 1008.94 1008.27 1007.57 1006.84
1006.45 1007.31 1008.19 1009.08 1009.94 1010.74 1011.46 1012.08 1012.57 1012.96 1013.24 1013.45 1013.60 1013.72 1013.84 1013.96 1014.09 1014.23 1014.37 1014.48 1014.55 1014.57 1014.51 1014.38 1014.17 1013.88 1013.53 1013.12 1012.67 1012.20 1011.71 1011.20 1010.67 1010.12 1009.53 1008.91 1008.25 1007.54
1007.69 1008.45 1009.26 1010.08 1010.88 1011.65 1012.33 1012.92 1013.40 1013.78 1014.05 1014.24 1014.38 1014.48 1014.57 1014.66 1014.76 1014.87 1014.97 1015.04 1015.07 1015.04 1014.95 1014.78 1014.53 1014.22 1013.86 1013.46 1013.04 1012.61 1012.17 1011.72 1011.26 1010.77 1010.25 1009.67 1009.03 1008.33
1008.95 1009.65 1010.39 1011.15 1011.91 1012.63 1013.28 1013.85 1014.30 1014.65 1014.90 1015.07 1015.18 1015.25 1015.31 1015.38 1015.44 1015.52 1015.58 1015.62 1015.61 1015.56 1015.43 1015.24 1014.98 1014.67 1014.31 1013.93 1013.54 1013.15 1012.76 1012.37 1011.97 1011.54 1011.07 1010.53 1009.92 1009.23
Thickness
5574 5579 5583 5588 5593 5599 5606 5611 5613 5613 5617 5620 5619 5620 5618 5616 5613 5610 5608 5603 5599 5595 5590 5585 5581 5575 5569 5565 5559 5554 5548 5543 5536 5530 5524 5519 5513 5507
5566 5571 5575 5581 5586 5590 5596 5602 5606 5609 5612 5615 5614 5613 5610 5607 5605 5604 5601 5597 5592 5588 5583 5579 5574 5568 5563 5557 5552 5547 5541 5535 5529 5523 5516 5510 5504 5498
5559 5564 5569 5574 5579 5583 5588 5593 5597 5601 5603 5605 5604 5604 5602 5600 5597 5595 5593 5590 5586 5581 5576 5572 5567 5562 5557 5551 5546 5540 5534 5528 5521 5515 5508 5502 5495 5489
5555 5560 5565 5569 5573 5577 5582 5587 5590 5594 5596 5596 5595 5594 5593 5592 5590 5587 5584 5582 5579 5574 5569 5565 5560 5555 5550 5544 5538 5532 5527 5520 5513 5506 5500 5493 5487 5480
5551 5557 5562 5565 5568 5573 5577 5581 5585 5588 5590 5590 5590 5587 5584 5582 5580 5578 5576 5573 5570 5566 5562 5558 5554 5548 5543 5537 5531 5525 5519 5512 5505 5498 5491 5484 5478 5471
5548 5553 5558 5562 5568 5571 5573 5578 5580 5582 5584 5584 5583 5580 5576 5573 5572 5571 5568 5566 5563 5559 5556 5551 5547 5541 5536 5530 5524 5517 5510 5503 5497 5490 5483 5476 5469 5462
5545 5551 5557 5561 5564 5567 5570 5574 5575 5577 5578 5579 5577 5574 5571 5568 5569 5568 5565 5561 5556 5552 5549 5545 5541 5536 5529 5522 5516 5509 5502 5496 5488 5481 5474 5467 5460 5454
5542 5548 5552 5555 5557 5560 5565 5568 5571 5574 5575 5576 5575 5574 5572 5569 5567 5564 5560 5556 5553 5547 5543 5539 5534 5529 5523 5516 5509 5502 5495 5488 5480 5473 5466 5459 5452 5446
5540 5544 5547 5551 5552 5555 5558 5560 5563 5566 5571 5576 5574 5574 5571 5569 5566 5560 5556 5554 5551 5542 5536 5533 5527 5522 5515 5508 5501 5494 5487 5479 5472 5465 5458 5451 5444 5437
5537 5541 5544 5547 5549 5552 5555 5555 5558 5560 5564 5568 5571 5571 5568 5565 5561 5557 5552 5545 5539 5533 5529 5525 5519 5513 5506 5500 5493 5486 5479 5472 5464 5457 5450 5443 5436 5429
5534 5539 5543 5546 5549 5551 5552 5554 5555 5555 5556 5558 5560 5561 5559 5557 5553 5547 5543 5540 5533 5526 5520 5518 5510 5503 5497 5492 5485 5478 5471 5463 5456 5449 5442 5435 5428 5422
5532 5537 5540 5545 5548 5550 5553 5554 5553 5551 5550 5549 5550 5549 5549 5546 5544 5545 5543 5538 5531 5521 5514 5509 5502 5495 5489 5484 5478 5471 5464 5456 5449 5441 5434 5428 5421 5415
5530 5535 5540 5543 5546 5547 5550 5553 5553 5550 5547 5547 5545 5543 5540 5538 5536 5535 5534 5532 5527 5519 5510 5503 5496 5490 5484 5476 5469 5463 5456 5449 5442 5434 5427 5420 5413 5407
5527 5533 5538 5541 5542 5543 5546 5547 5546 5545 5543 5541 5540 5537 5535 5532 5529 5526 5523 5520 5517 5513 5504 5498 5491 5484 5477 5470 5463 5454 5448 5441 5434 5427 5421 5413 5407 5400
5524 5530 5535 5537 5538 5538 5539 5541 5541 5541 5540 5538 5536 5532 5529 5526 5521 5516 5511 5507 5504 5499 5494 5490 5485 5478 5472 5465 5456 5447 5440 5433 5427 5420 5414 5407 5401 5395
5520 5525 5528 5530 5532 5533 5534 5535 5536 5538 5538 5535 5531 5526 5522 5518 5514 5510 5505 5501 5496 5488 5483 5479 5475 5470 5464 5457 5449 5441 5434 5426 5419 5413 5407 5401 5395 5389
5515 5518 5520 5522 5524 5527 5528 5530 5530 5531 5530 5528 5525 5521 5516 5512 5507 5503 5500 5497 5492 5484 5475 5469 5465 5460 5454 5447 5440 5434 5427 5420 5413 5407 5400 5395 5390 5385
5511 5513 5515 5517 5519 5521 5522 5523 5524 5524 5524 5523 5520 5517 5512 5507 5501 5497 5494 5491 5485 5477 5470 5462 5457 5453 5445 5436 5430 5425 5419 5413 5407 5401 5395 5389 5386 5380
5505 5508 5510 5512 5513 5515 5516 5517 5517 5518 5518 5517 5514 5511 5506 5501 5497 5492 5488 5483 5476 5470 5463 5456 5452 5449 5445 5435 5423 5416 5411 5406 5400 5395 5390 5385 5381 5376
5498 5503 5505 5506 5507 5508 5509 5510 5510 5510 5510 5509 5506 5503 5499 5496 5491 5487 5482 5477 5471 5463 5456 5449 5445 5441 5437 5429 5417 5409 5404 5400 5395 5390 5385 5381 5376 5372
5490 5495 5498 5500 5501 5501 5502 5503 5503 5503 5502 5501 5499 5496 5492 5489 5485 5480 5475 5469 5465 5458 5451 5444 5436 5430 5425 5419 5412 5405 5399 5393 5389 5384 5380 5376 5373 5371
5482 5487 5489 5491 5493 5494 5494 5495 5495 5494 5493 5492 5491 5488 5485 5482 5478 5473 5469 5464 5458 5452 5444 5435 5428 5424 5421 5417 5409 5401 5394 5389 5384 5380 5376 5372 5369 5366
5475 5479 5482 5484 5485 5486 5487 5488 5488 5487 5486 5485 5483 5480 5477 5474 5471 5467 5462 5457 5451 5444 5437 5429 5423 5418 5414 5409 5403 5396 5390 5385 5382 5378 5373 5369 5365 5362